Location: Barcelona
(41.3830°N, 2.1830°E)
Time: 13:04:51
(UTC+01:00)

ISS - Pass Details

Date: 12 December 2019
Orbit: 411 x 421 km, 51.6° (Epoch: 11 December)

Event Time Altitude Azimuth Distance (km) Brightness Sun altitude
Rises 18:23:34 0° 297° (WNW) 2,357 0.7 -11.2°
Reaches altitude 10° 18:25:50 10° 285° (WNW) 1,492 -0.1 -11.6°
Maximum altitude 18:28:44 27° 225° (SW) 827 -1.5 -12.1°
Drops below altitude 10° 18:31:38 10° 165° (SSE) 1,488 -0.9 -12.7°
Sets 18:33:54 0° 153° (SSE) 2,349 0.0 -13.1°
